Middlesboro-Bell County (1A6)

 

Airport Diagram
No Airport Diagram Available
Current Weather/Forecast (VFR Conditions)
METAR K1A6 071355Z AUTO 31010G14KT 10SM CLR 12/03 A3007 RMK AO2 T01210031
TAF

Airport Information

All Charts
General
Chart Name View
TAKEOFF MINIMUMS
ALTERNATE MINIMUMS

Approaches
Chart Name Download
RNAV (GPS)-A


Airport Statistics
Departures Arrivals Local
All Collected Stats since June 2016: 2 3 0
2021 Stats: 1 2 0
May Stats: 0 0 0

Inbound Traffic (Arrivals) - 0

No inbound traffic.


Outbound Traffic (Departures) - 0

No outbound traffic.


Local Traffic (Pattern) - 0

No local traffic.